Flag for Germany Weather past 2 weeks in Bautzen, Saxony, Germany

Now
63 °F

Overcast.


Feels Like: 63 °F
Forecast: 56 / 71 °F
Wind: 7 mph from South

Location: Goerlitz

Current Time: Sep 19, 2014 at 12:36:34 AM

Latest Report: Sep 19, 2014 at 12:00 AM


Visibility: 16 mi

Pressure: 29.98 "Hg

Humidity: 67%

Dew point: 52 °F

Location of BautzenLocation

Historic Weather in Bautzen — Graph

°F

Bautzen temperature yesterday

Maximum temperature yesterday: 70 °F (at 2:00 PM)
Minimum temperature yesterday: 54 °F (at 7:00 AM)
Average temperature yesterday: 63 °F

Past Weeks' High & Low Weather Summary

 TemperatureHumidityPressure
High79 °F (Sep 7, 3:00 PM)100% (Sep 15, 7:00 AM)30.22 "Hg (Sep 15, 7:00 AM)
Low52 °F (Sep 17, 7:00 AM)50% (Sep 7, 3:00 PM)29.87 "Hg (Sep 6, 4:00 PM)
Average62 °F85%30.03 "Hg
* Reported Sep 3 11:00 PM — Sep 18 11:00 PM, Bautzen, Weather by CustomWeather, © 2014

Note: Actual official high and low records may vary slightly from our data, if they occured in-between our weather recording intervals... More about our weather records

Advertising

Bautzen weather history for previous 24 hours

 ConditionsComfort  
Time TempWeatherWind HumidityBarometerVisibility
11:00 PM
Sep 18
63 °FOvercast.7 mph66%29.98 "Hg16 mi
10:00 PM62 °FPassing clouds.6 mph66%29.99 "Hg15 mi
9:00 PM62 °FOvercast.3 mph68%30.00 "Hg16 mi
8:00 PM64 °FOvercast.3 mph64%29.99 "Hg16 mi
7:00 PM65 °FOvercast.3 mph62%29.98 "Hg18 mi
6:00 PM67 °FOvercast.6 mph57%29.98 "Hg31 mi
5:00 PM69 °FOvercast.6 mph54%29.97 "Hg28 mi
4:00 PM70 °FOvercast.6 mph50%29.97 "Hg28 mi
3:00 PM70 °FOvercast.5 mph51%29.98 "Hg25 mi
2:00 PM70 °FOvercast.7 mph50%29.98 "Hg25 mi
1:00 PM69 °FPartly sunny.7 mph52%29.99 "Hg25 mi
12:00 PM69 °FPartly sunny.7 mph51%29.99 "Hg28 mi
11:00 AM68 °FScattered clouds.7 mph57%30.00 "Hg28 mi
10:00 AM66 °FPassing clouds.3 mph63%30.00 "Hg28 mi
9:00 AM62 °FPassing clouds.2 mph71%30.00 "Hg28 mi
8:00 AM57 °FPassing clouds.2 mph85%30.01 "Hg28 mi
7:00 AM54 °FPassing clouds.2 mph90%30.01 "Hg28 mi
6:00 AM58 °FPassing clouds.2 mph84%30.01 "Hg11 mi
5:00 AM55 °FClear.2 mph89%30.01 "Hg9 mi
4:00 AM58 °FClear.1 mph86%30.02 "Hg9 mi
3:00 AM57 °FClear.2 mph88%30.03 "Hg7 mi
2:00 AM58 °FClear.2 mph86%30.03 "Hg9 mi
1:00 AM57 °FClear.3 mph86%30.03 "Hg9 mi
12:00 AM59 °FClear.2 mph86%30.03 "Hg10 mi
Weather by CustomWeather, © 2014

See weather overviewHow to use our weather pages